THY53R LTCG-LTFM

Flight info

Callsign THY53R
Flight time N/A
Altitude 36000
Route TEMEL1M TEMEL UW71 CRM UM688 EKSUK DCT NUGBA GUNCE KESKN
Aircraft B738/M-SDE2E3FGHIRWXY/LB1

Departure

Time 2026-05-06 11:10
Airport Trabzon International Airport (LTCG)

Arrival

Time N/A
Airport İstanbul Airport (LTFM)
Time Latitude Longitude Altitude Speed Heading
2026-05-06 10:56 40.99583 39.78036 115 ft 0 kts 202°
2026-05-06 11:02 40.99594 39.78041 111 ft 2 kts 200°
2026-05-06 11:02 40.99609 39.78049 112 ft 2 kts 197°
2026-05-06 11:02 40.99625 39.78054 111 ft 2 kts 187°
2026-05-06 11:03 40.99642 39.78053 115 ft 2 kts 145°
2026-05-06 11:03 40.99651 39.78039 110 ft 1 kts 114°
2026-05-06 11:03 40.99652 39.78036 110 ft 0 kts 113°
2026-05-06 11:04 40.99650 39.78041 110 ft 3 kts 113°
2026-05-06 11:04 40.99625 39.78121 113 ft 15 kts 111°
2026-05-06 11:05 40.99575 39.78284 113 ft 20 kts 112°
2026-05-06 11:05 40.99521 39.78455 113 ft 20 kts 112°
2026-05-06 11:05 40.99470 39.78622 112 ft 19 kts 112°
2026-05-06 11:05 40.99420 39.78782 114 ft 19 kts 112°
2026-05-06 11:06 40.99372 39.78936 112 ft 19 kts 112°
2026-05-06 11:06 40.99333 39.79085 101 ft 13 kts 94°
2026-05-06 11:06 40.99341 39.79137 102 ft 0 kts 69°
2026-05-06 11:07 40.99342 39.79140 102 ft 2 kts 69°
2026-05-06 11:07 40.99352 39.79174 101 ft 6 kts 69°
2026-05-06 11:07 40.99374 39.79248 104 ft 11 kts 68°
2026-05-06 11:07 40.99386 39.79364 103 ft 16 kts 108°
2026-05-06 11:08 40.99337 39.79521 106 ft 21 kts 112°
2026-05-06 11:08 40.99278 39.79715 106 ft 25 kts 112°
2026-05-06 11:08 40.99212 39.79930 105 ft 24 kts 111°
2026-05-06 11:08 40.99149 39.80130 102 ft 22 kts 112°
2026-05-06 11:09 40.99060 39.80276 103 ft 19 kts 142°
2026-05-06 11:09 40.99045 39.80396 100 ft 12 kts 23°
2026-05-06 11:09 40.99086 39.80332 101 ft 2 kts 294°
2026-05-06 11:09 40.99093 39.80311 101 ft 6 kts 294°
2026-05-06 11:10 40.99209 39.79933 105 ft 87 kts 292°
2026-05-06 11:10 40.99544 39.78860 111 ft 162 kts 293°
2026-05-06 11:10 40.99992 39.77439 946 ft 168 kts 295°
2026-05-06 11:10 41.00480 39.76058 2322 ft 169 kts 296°
2026-05-06 11:11 41.00807 39.74433 2827 ft 200 kts 276°
2026-05-06 11:11 41.00938 39.72473 3111 ft 226 kts 276°
2026-05-06 11:11 41.01093 39.70340 3647 ft 237 kts 276°
2026-05-06 11:11 41.01266 39.68072 4000 ft 257 kts 276°
2026-05-06 11:12 41.01455 39.65677 4727 ft 265 kts 276°
2026-05-06 11:12 41.01650 39.63241 5656 ft 267 kts 276°
2026-05-06 11:12 41.01850 39.60784 6564 ft 270 kts 276°
2026-05-06 11:12 41.02054 39.58291 7387 ft 274 kts 276°
2026-05-06 11:13 41.02262 39.55766 8214 ft 278 kts 275°
2026-05-06 11:13 41.02474 39.53204 9053 ft 282 kts 275°
2026-05-06 11:13 41.02689 39.50598 9972 ft 286 kts 275°
2026-05-06 11:13 41.02907 39.47961 10796 ft 290 kts 275°
2026-05-06 11:14 41.03128 39.45296 11569 ft 293 kts 275°
2026-05-06 11:14 41.03351 39.42590 12334 ft 297 kts 275°
2026-05-06 11:14 41.03577 39.39848 13106 ft 301 kts 275°
2026-05-06 11:14 41.03805 39.37071 13868 ft 305 kts 274°
2026-05-06 11:15 41.04035 39.34265 14555 ft 309 kts 274°
2026-05-06 11:15 41.04267 39.31426 15218 ft 312 kts 274°
2026-05-06 11:15 41.04502 39.28542 15893 ft 317 kts 274°
2026-05-06 11:15 41.04735 39.25662 16577 ft 321 kts 274°
2026-05-06 11:16 41.04975 39.22705 17255 ft 325 kts 274°
2026-05-06 11:16 41.05218 39.19705 17920 ft 329 kts 274°
2026-05-06 11:16 41.05462 39.16665 18573 ft 333 kts 274°
2026-05-06 11:16 41.05708 39.13603 19176 ft 336 kts 274°
2026-05-06 11:17 41.05982 39.10467 19427 ft 352 kts 275°
2026-05-06 11:17 41.06569 39.04197 19767 ft 382 kts 275°
2026-05-06 11:17 41.07242 38.97065 20631 ft 396 kts 275°
2026-05-06 11:17 41.07922 38.89746 21745 ft 402 kts 275°
2026-05-06 11:18 41.08601 38.82331 22794 ft 409 kts 275°
2026-05-06 11:18 41.09288 38.74767 23786 ft 416 kts 275°
2026-05-06 11:18 41.09967 38.67122 24695 ft 420 kts 274°
2026-05-06 11:18 41.10597 38.59472 25576 ft 424 kts 274°
2026-05-06 11:19 41.11215 38.52106 26364 ft 428 kts 274°
2026-05-06 11:19 41.11883 38.44216 27162 ft 433 kts 274°
2026-05-06 11:19 41.12554 38.36214 27933 ft 437 kts 274°
2026-05-06 11:19 41.13198 38.28448 28731 ft 441 kts 274°
2026-05-06 11:20 41.13863 38.20294 29429 ft 446 kts 274°
2026-05-06 11:20 41.14300 38.14868 29850 ft 449 kts 274°
2026-05-06 11:20 41.14961 38.06605 30555 ft 449 kts 274°
2026-05-06 11:20 41.15615 37.98389 31316 ft 447 kts 274°
2026-05-06 11:21 41.16262 37.90170 31936 ft 447 kts 274°
2026-05-06 11:21 41.16950 37.81883 32632 ft 445 kts 275°
2026-05-06 11:21 41.17663 37.73834 33257 ft 445 kts 275°
2026-05-06 11:21 41.18370 37.65686 33906 ft 444 kts 275°
2026-05-06 11:22 41.18981 37.57534 34444 ft 443 kts 272°
2026-05-06 11:22 41.19401 37.49368 34900 ft 443 kts 274°
2026-05-06 11:22 41.20019 37.41221 35340 ft 444 kts 275°
2026-05-06 11:22 41.20638 37.33079 35817 ft 443 kts 275°
2026-05-06 11:23 41.21229 37.24915 36175 ft 444 kts 275°
2026-05-06 11:23 41.22510 37.08341 36133 ft 453 kts 275°
2026-05-06 11:24 41.23809 36.91839 36105 ft 442 kts 275°
2026-05-06 11:24 41.25035 36.75803 36112 ft 433 kts 275°
2026-05-06 11:25 41.26227 36.59938 36141 ft 437 kts 275°
2026-05-06 11:25 41.27407 36.43621 36142 ft 448 kts 275°
2026-05-06 11:26 41.28561 36.27048 36108 ft 449 kts 275°
2026-05-06 11:26 41.29679 36.10705 36090 ft 438 kts 275°
2026-05-06 11:27 41.30755 35.94662 36104 ft 435 kts 276°
2026-05-06 11:27 41.31819 35.78466 36101 ft 445 kts 276°
2026-05-06 11:28 41.32882 35.61906 36084 ft 451 kts 276°
2026-05-06 11:28 41.33917 35.45397 36057 ft 441 kts 275°
2026-05-06 11:29 41.34904 35.29307 36069 ft 433 kts 275°
2026-05-06 11:29 41.35868 35.13223 36080 ft 441 kts 275°
2026-05-06 11:30 41.36825 34.96864 36068 ft 449 kts 276°
2026-05-06 11:30 41.37766 34.80353 36042 ft 442 kts 276°
2026-05-06 11:31 41.38662 34.64245 35988 ft 431 kts 276°
2026-05-06 11:31 41.39518 34.48463 36076 ft 427 kts 276°
2026-05-06 11:32 41.40367 34.32508 36076 ft 438 kts 276°
2026-05-06 11:32 41.41448 34.16199 36056 ft 442 kts 277°
2026-05-06 11:33 41.42505 34.00198 36052 ft 429 kts 277°
2026-05-06 11:33 41.43508 33.84471 36077 ft 424 kts 277°
2026-05-06 11:34 41.44498 33.68622 36090 ft 435 kts 277°
2026-05-06 11:34 41.45489 33.52367 36066 ft 441 kts 277°
2026-05-06 11:35 41.46437 33.36381 36041 ft 427 kts 277°
2026-05-06 11:35 41.47348 33.20719 36068 ft 422 kts 277°
2026-05-06 11:36 41.48246 33.04956 36090 ft 432 kts 277°
2026-05-06 11:36 41.49137 32.88859 36083 ft 436 kts 277°
2026-05-06 11:37 41.49995 32.72892 36065 ft 424 kts 277°
2026-05-06 11:37 41.50811 32.57359 36111 ft 416 kts 277°
2026-05-06 11:38 41.51611 32.41835 36148 ft 425 kts 277°
2026-05-06 11:38 41.52404 32.25919 36129 ft 432 kts 277°
2026-05-06 11:39 41.53170 32.10034 36105 ft 421 kts 277°
2026-05-06 11:39 41.53896 31.94604 36127 ft 414 kts 277°
2026-05-06 11:40 41.54604 31.79241 36139 ft 423 kts 277°
2026-05-06 11:40 41.55298 31.63554 36102 ft 418 kts 277°
2026-05-06 11:40 41.55628 31.55880 35502 ft 409 kts 277°
2026-05-06 11:41 41.55948 31.48361 34747 ft 402 kts 277°
2026-05-06 11:41 41.56249 31.41217 34022 ft 395 kts 277°
2026-05-06 11:41 41.56556 31.33819 33162 ft 389 kts 277°
2026-05-06 11:41 41.56848 31.26669 32395 ft 382 kts 277°
2026-05-06 11:42 41.57132 31.19624 31667 ft 376 kts 277°
2026-05-06 11:42 41.57406 31.12713 30960 ft 370 kts 277°
2026-05-06 11:42 41.57672 31.05899 30264 ft 365 kts 277°
2026-05-06 11:42 41.57930 30.99178 29477 ft 359 kts 277°
2026-05-06 11:43 41.58180 30.92559 28729 ft 353 kts 277°
2026-05-06 11:43 41.58422 30.86084 28017 ft 346 kts 277°
2026-05-06 11:43 41.58654 30.79802 27343 ft 340 kts 276°
2026-05-06 11:44 41.58863 30.67353 25982 ft 335 kts 264°
2026-05-06 11:44 41.57469 30.61412 25330 ft 335 kts 253°
2026-05-06 11:44 41.55791 30.55618 24661 ft 333 kts 252°
2026-05-06 11:44 41.54129 30.49871 24004 ft 330 kts 252°
2026-05-06 11:45 41.52488 30.44160 23293 ft 328 kts 252°
2026-05-06 11:45 41.50863 30.38498 22578 ft 325 kts 252°
2026-05-06 11:45 41.49253 30.32889 21909 ft 321 kts 252°
2026-05-06 11:45 41.47664 30.27359 21275 ft 317 kts 252°
2026-05-06 11:46 41.46089 30.21889 20649 ft 314 kts 252°
2026-05-06 11:46 41.44518 30.16444 20045 ft 315 kts 252°
2026-05-06 11:46 41.42935 30.10963 19443 ft 318 kts 251°
2026-05-06 11:46 41.41334 30.05436 18820 ft 321 kts 251°
2026-05-06 11:47 41.39738 29.99941 18140 ft 323 kts 251°
2026-05-06 11:47 41.38122 29.94389 17424 ft 320 kts 251°
2026-05-06 11:47 41.36523 29.88912 16752 ft 316 kts 251°
2026-05-06 11:47 41.34939 29.83493 16089 ft 312 kts 251°
2026-05-06 11:48 41.33367 29.78123 15480 ft 309 kts 251°
2026-05-06 11:48 41.31813 29.72830 14867 ft 306 kts 251°
2026-05-06 11:48 41.30270 29.67582 14258 ft 303 kts 251°
2026-05-06 11:48 41.28738 29.62384 13623 ft 301 kts 252°
2026-05-06 11:49 41.27214 29.57219 12963 ft 299 kts 252°
2026-05-06 11:49 41.25703 29.52110 12333 ft 296 kts 252°
2026-05-06 11:49 41.24203 29.47051 11717 ft 293 kts 252°
2026-05-06 11:49 41.22713 29.42033 11113 ft 290 kts 251°
2026-05-06 11:50 41.21239 29.37077 10531 ft 287 kts 251°